[[{"header":{"parameterUnit":"m.s-1","parameterCategory":1,"la1":30.2991,"la2":30.254,"lo1":-89.0895,"lo2":-89.0444,"dy":0.0017,"dx":0.0017,"nx":28,"ny":28,"refTime":"2024-05-09T09:00:00:Z","depth":0,"parameterNumber":2,"parameterNumberName":"U-component_of_WINDS"},"data":[0,0,0,0,0,0,0,0,0,0,0,0,0,0,0,0,0,0,0,0,0,0,0,0,0,0,0,0,0,0,0,0,0,0,0,0,0,0,0,0,0,0,0,0,0,0,0,0,0,0,0,0,0,0,0,0,0,0,0.5586,0.5586,0,0.5575,0.5575,0.5575,0.5579,0.5579,0.5579,0.5579,0.5565,0.5565,0.5564,0,0,0,0,0,0,0,0,0,0,0,0,0,0.5609,0.5609,0.5586,0.5586,0.5586,0.5575,0.5575,0.5575,0.5579,0.5579,0.5579,0.558,0.5565,0.5565,0.5564,0,0,0,0,0,0,0,0,0,0,0,0,0,0.5599,0.5609,0.5586,0.5587,0.5587,0.5575,0.5575,0.5575,0.5579,0.5579,0.5579,0.558,0.5566,0.5565,0.5564,0.555,0,0,0.5561,0.5561,0,0,0,0,0,0,0,0,0.5599,0.5598,0.5587,0.5587,0.5586,0.5579,0.5578,0.5566,0.5579,0.5581,0.5579,0.558,0.5569,0.5568,0.5565,0.555,0.5549,0.5561,0.556,0.556,0.556,0,0,0,0,0,0,0,0.56,0.5598,0.5582,0.5586,0.5586,0.5587,0.5586,0.5576,0.5573,0.5581,0.5582,0.558,0.5569,0.5566,0.5565,0.5549,0.5561,0.556,0.556,0.5559,0.5524,0.5523,0,0,0,0,0,0,0.5601,0.5599,0.5582,0.5581,0.5594,0.5586,0.5585,0.5581,0.5573,0.5573,0.558,0.5581,0.5567,0.5566,0.5564,0.5549,0.556,0.5559,0.5559,0.5524,0.5524,0.5523,0,0,0,0,0,0,0.5602,0.56,0.5582,0.559,0.5588,0.5585,0.5581,0.558,0.5577,0.5573,0.5572,0.5577,0.5568,0.5565,0.5554,0.5548,0.5559,0.5558,0.5524,0.5524,0.5523,0.5517,0,0,0,0,0,0,0.5602,0.56,0.5595,0.559,0.5588,0.5573,0.558,0.558,0.5576,0.5576,0.557,0.5569,0.5568,0.5556,0.5553,0.5547,0.5557,0.5525,0.5524,0.5523,0.5518,0.5516,0.5515,0,0,0,0,0,0.5603,0.5592,0.5594,0.5592,0.5582,0.5573,0.5571,0.5571,0.5575,0.557,0.5568,0.5569,0.555,0.5555,0.5552,0.5545,0.5525,0.5524,0.5524,0.5518,0.5516,0.5515,0,0,0,0,0,0,0.5595,0.5592,0.5594,0.5582,0.5578,0.5573,0.5567,0.5569,0.5563,0.5563,0.5562,0.5561,0.555,0.5546,0.5552,0.5533,0.5538,0.5537,0.5535,0.5533,0.5532,0.5532,0.5556,0,0,0,0,0,0.5592,0.5586,0.5583,0.5572,0.557,0.5569,0.5565,0.5566,0.5561,0.5559,0.5555,0.555,0.5543,0.5538,0.5531,0.5518,0.5516,0.5512,0.5511,0.551,0.5508,0.5502,0.55,0.552,0.552,0.552,0,0,0.5585,0.5582,0.5578,0.5571,0.5568,0.5561,0.5567,0.5559,0.5554,0.5557,0.5547,0.5544,0.5539,0.5527,0.5521,0.5524,0.5502,0.5509,0.5508,0.5507,0.55,0.5498,0.5497,0.552,0.552,0.552,0,0,0.5569,0.5566,0.5558,0.5555,0.5551,0.5551,0.5549,0.5545,0.5544,0.5534,0.5536,0.553,0.5517,0.5513,0.551,0.5495,0.5496,0.5493,0.5485,0.5479,0.5477,0.5476,0.5471,0.5469,0.5492,0.5492,0.5492,0,0.556,0.555,0.5553,0.5545,0.5542,0.5546,0.5538,0.5535,0.5528,0.5526,0.5529,0.5515,0.5511,0.5498,0.5495,0.5492,0.549,0.5493,0.5478,0.5476,0.5475,0.547,0.5468,0.5491,0.5491,0.5491,0.5491,0,0.554,0.5534,0.5527,0.5523,0.5519,0.5511,0.5511,0.5507,0.5509,0.5508,0.5498,0.5495,0.5488,0.5485,0.5485,0.5473,0.5475,0.5478,0.5483,0.5472,0.5468,0.5466,0.5491,0.5491,0.5491,0.5491,0,0,0.5516,0.5515,0.5512,0.5511,0.5508,0.5502,0.5495,0.549,0.5486,0.5482,0.5476,0.5466,0.547,0.5466,0.5466,0.5461,0.545,0.5465,0.5465,0.5462,0.5437,0.5434,0.5431,0.5452,0.5452,0.5451,0.5437,0,0.5499,0.5487,0.549,0.5477,0.5472,0.5477,0.5471,0.5468,0.5468,0.5463,0.5462,0.5456,0.5461,0.5459,0.5454,0.5453,0.5445,0.5454,0.5445,0.5445,0.5446,0.5429,0.5425,0.5412,0.5435,0.5435,0.5435,0,0.5477,0.5474,0.5462,0.5462,0.5459,0.5453,0.5449,0.5445,0.5442,0.5443,0.544,0.5442,0.5435,0.5441,0.5431,0.5437,0.5434,0.5433,0.5433,0.5431,0.5438,0.5426,0.5407,0.5405,0.5432,0.5432,0.5432,0,0.5461,0.5454,0.5445,0.5444,0.5443,0.5439,0.5439,0.5437,0.5434,0.5431,0.5429,0.5424,0.5421,0.5418,0.5419,0.5424,0.5409,0.5415,0.5408,0.5408,0.5403,0.5403,0.5384,0.5403,0.5403,0.5403,0.5403,0,0.5441,0.5433,0.5438,0.5433,0.5424,0.5428,0.542,0.542,0.5419,0.5414,0.5418,0.5413,0.5415,0.5411,0.5412,0.5403,0.5402,0.5402,0.5402,0.5401,0.5401,0.5398,0.5398,0.5403,0.5403,0.5403,0.5403,0,0.542,0.5423,0.5414,0.5416,0.5416,0.541,0.541,0.5406,0.5407,0.5401,0.5399,0.5401,0.5396,0.5397,0.5391,0.5392,0.5381,0.5383,0.5382,0.5382,0.5375,0.5376,0.5352,0.5349,0.5371,0.5371,0.5371,0,0.5406,0.54,0.5402,0.5399,0.5399,0.5395,0.5393,0.5397,0.5394,0.5393,0.5388,0.5384,0.538,0.5372,0.5372,0.5368,0.5369,0.5361,0.5368,0.5368,0.5369,0.5369,0.5368,0.5359,0.5359,0.5359,0.5359,0,0.5382,0.5384,0.5381,0.538,0.5377,0.5376,0.5374,0.5372,0.5376,0.5373,0.5369,0.5367,0.5362,0.5357,0.5354,0.5353,0.5356,0.5357,0.5355,0.5353,0.5353,0.5353,0.5378,0.5357,0.5357,0.5357,0.5357,0.5357,0.5364,0.5359,0.536,0.5357,0.5357,0.5356,0.5353,0.5355,0.5351,0.5348,0.5351,0.5346,0.5346,0.5342,0.5341,0.5337,0.534,0.5337,0.5336,0.5335,0.5334,0.5355,0.5337,0.5337,0.5337,0.5337,0.5337,0,0.5339,0.5341,0.5338,0.5337,0.5335,0.5341,0.534,0.5338,0.5334,0.5333,0.5331,0.5327,0.5323,0.5324,0.5321,0.5318,0.5319,0.5317,0.5316,0.5316,0.5332,0.5334,0.5316,0.5316,0.5316,0.5316,0.5316,0.5316,0.5326,0.5319,0.5322,0.5316,0.5318,0.5314,0.5313,0.5312,0.5313,0.5308,0.5306,0.5307,0.5308,0.5305,0.5303,0.5303,0.5301,0.5298,0.5299,0.5313,0.5315,0.5317,0.5319,0.5298,0.5298,0.5284,0.5284,0.5283]},{"header":{"parameterUnit":"m.s-1","parameterCategory":1,"la1":30.2991,"la2":30.254,"lo1":-89.0895,"lo2":-89.0444,"dy":0.0017,"dx":0.0017,"nx":28,"ny":28,"refTime":"2024-05-09T09:00:00:Z","depth":0,"parameterNumber":3,"parameterNumberName":"V-component_of_WINDS"},"data":[0,0,0,0,0,0,0,0,0,0,0,0,0,0,0,0,0,0,0,0,0,0,0,0,0,0,0,0,0,0,0,0,0,0,0,0,0,0,0,0,0,0,0,0,0,0,0,0,0,0,0,0,0,0,0,0,0,0,-6.2122,-6.2123,0,-6.2192,-6.2193,-6.2194,-6.21,-6.2097,-6.2093,-6.209,-6.2156,-6.2161,-6.2166,0,0,0,0,0,0,0,0,0,0,0,0,0,-6.1903,-6.1908,-6.2122,-6.2123,-6.2124,-6.2192,-6.2193,-6.2194,-6.2101,-6.2097,-6.2092,-6.2089,-6.2155,-6.216,-6.2166,0,0,0,0,0,0,0,0,0,0,0,0,0,-6.1988,-6.1909,-6.2122,-6.2086,-6.2083,-6.2192,-6.2193,-6.2194,-6.2101,-6.2096,-6.2091,-6.2087,-6.2153,-6.216,-6.2167,-6.2313,0,0,-6.2189,-6.2193,0,0,0,0,0,0,0,0,-6.1983,-6.1996,-6.209,-6.2089,-6.2086,-6.2132,-6.214,-6.2234,-6.2103,-6.2094,-6.209,-6.2084,-6.2152,-6.2159,-6.2183,-6.2316,-6.2319,-6.219,-6.2194,-6.2198,-6.22,0,0,0,0,0,0,0,-6.1978,-6.1993,-6.215,-6.2092,-6.2089,-6.2064,-6.2071,-6.2157,-6.215,-6.2095,-6.2088,-6.2098,-6.215,-6.2176,-6.2184,-6.232,-6.219,-6.2196,-6.2201,-6.2204,-6.2576,-6.2581,0,0,0,0,0,0,-6.1977,-6.1988,-6.2147,-6.2152,-6.2022,-6.2073,-6.208,-6.2122,-6.2149,-6.2149,-6.2102,-6.2093,-6.2166,-6.2175,-6.2186,-6.2358,-6.2198,-6.2204,-6.2209,-6.257,-6.2577,-6.2583,0,0,0,0,0,0,-6.1973,-6.1992,-6.2145,-6.2069,-6.2086,-6.2082,-6.213,-6.2126,-6.2153,-6.2155,-6.2153,-6.2131,-6.2163,-6.2175,-6.2282,-6.2359,-6.2208,-6.2214,-6.2564,-6.2572,-6.258,-6.2705,0,0,0,0,0,0,-6.1967,-6.1991,-6.2048,-6.2071,-6.2091,-6.2242,-6.2135,-6.2131,-6.2166,-6.2155,-6.2181,-6.218,-6.216,-6.2272,-6.229,-6.2367,-6.222,-6.2557,-6.2567,-6.2577,-6.2694,-6.2717,-6.2736,0,0,0,0,0,-6.1959,-6.2079,-6.2051,-6.2071,-6.2161,-6.2247,-6.2258,-6.2233,-6.2173,-6.2229,-6.223,-6.218,-6.2348,-6.2284,-6.2303,-6.2383,-6.2552,-6.2564,-6.2576,-6.2685,-6.2712,-6.2735,0,0,0,0,0,0,-6.2062,-6.2081,-6.205,-6.2181,-6.2214,-6.2231,-6.2301,-6.2263,-6.2311,-6.2299,-6.2264,-6.227,-6.2385,-6.2394,-6.2322,-6.2526,-6.244,-6.2457,-6.2515,-6.2542,-6.2562,-6.2557,-6.2226,0,0,0,0,0,-6.2101,-6.2171,-6.2182,-6.2296,-6.2314,-6.2305,-6.2341,-6.232,-6.235,-6.2363,-6.2372,-6.2403,-6.2462,-6.2502,-6.2557,-6.2695,-6.2699,-6.276,-6.2781,-6.2798,-6.2813,-6.2886,-6.2913,-6.2623,-6.2623,-6.2623,0,0,-6.218,-6.2199,-6.2244,-6.2318,-6.234,-6.2411,-6.2317,-6.2396,-6.2448,-6.2374,-6.2476,-6.2484,-6.2516,-6.2639,-6.2694,-6.2651,-6.2894,-6.2813,-6.2827,-6.2833,-6.2901,-6.2929,-6.2953,-6.2632,-6.263,-6.2629,0,0,-6.2361,-6.2383,-6.2481,-6.2506,-6.2542,-6.2535,-6.2558,-6.2582,-6.2585,-6.2688,-6.2634,-6.2694,-6.2798,-6.2823,-6.2849,-6.3042,-6.2997,-6.306,-6.3169,-6.3241,-6.3264,-6.3284,-6.3353,-6.3378,-6.3075,-6.3075,-6.3075,0,-6.2454,-6.2562,-6.2535,-6.2619,-6.2653,-6.2591,-6.2689,-6.2714,-6.2765,-6.2789,-6.2741,-6.287,-6.2887,-6.3015,-6.3063,-6.3086,-6.3111,-6.3057,-6.3263,-6.3283,-6.3302,-6.3366,-6.3392,-6.3083,-6.3082,-6.3081,-6.308,0,-6.2675,-6.275,-6.2825,-6.2879,-6.292,-6.3011,-6.2996,-6.3042,-6.3016,-6.3015,-6.3119,-6.3138,-6.3196,-6.3224,-6.32,-6.335,-6.3322,-6.3269,-6.3182,-6.3337,-6.3398,-6.3422,-6.3094,-6.3091,-6.3089,-6.3087,0,0,-6.2922,-6.2962,-6.2989,-6.3013,-6.3049,-6.3106,-6.3193,-6.3252,-6.3291,-6.3329,-6.34,-6.349,-6.3442,-6.3472,-6.345,-6.3513,-6.3664,-6.3452,-6.3453,-6.3491,-6.383,-6.387,-6.3899,-6.3635,-6.364,-6.3643,-6.3828,0,-6.3103,-6.3257,-6.3236,-6.3383,-6.3452,-6.3395,-6.3471,-6.35,-6.3501,-6.3558,-6.3557,-6.3622,-6.3554,-6.3572,-6.3632,-6.3633,-6.3732,-6.362,-6.37,-6.3703,-6.3694,-6.3931,-6.3973,-6.4146,-6.3851,-6.3855,-6.3858,0,-6.3335,-6.3384,-6.3539,-6.3565,-6.3593,-6.3662,-6.3715,-6.377,-6.3802,-6.3798,-6.3833,-6.3799,-6.3885,-6.3797,-6.3914,-6.3839,-6.387,-6.3876,-6.3882,-6.3888,-6.379,-6.3943,-6.4201,-6.4227,-6.3895,-6.3892,-6.3889,0,-6.3501,-6.3605,-6.3711,-6.3733,-6.3766,-6.3816,-6.3831,-6.3858,-6.3895,-6.394,-6.3964,-6.4018,-6.4047,-6.4089,-6.4071,-6.4008,-6.4192,-6.4102,-6.419,-6.4191,-6.4231,-6.4229,-6.4497,-6.4252,-6.4251,-6.4251,-6.425,0,-6.3705,-6.3802,-6.3786,-6.3851,-6.3958,-6.3932,-6.4038,-6.4046,-6.4071,-6.4135,-6.4088,-6.415,-6.4121,-6.418,-6.4166,-6.4266,-6.4279,-6.4277,-6.4272,-6.4282,-6.4282,-6.4302,-6.4289,-6.4258,-6.4256,-6.4255,-6.4254,0,-6.3908,-6.3901,-6.4013,-6.4036,-6.4044,-6.4121,-6.4139,-6.42,-6.4197,-6.428,-6.4298,-6.4293,-6.436,-6.4346,-6.4419,-6.4409,-6.4535,-6.4514,-6.4525,-6.452,-6.4609,-6.4601,-6.4899,-6.4937,-6.4668,-6.467,-6.4672,0,-6.4039,-6.4113,-6.4144,-6.4185,-6.4205,-6.4272,-6.431,-6.4287,-6.4329,-6.4371,-6.4426,-6.449,-6.4539,-6.4649,-6.4651,-6.4707,-6.4688,-6.4788,-6.4695,-6.4703,-6.4689,-6.4685,-6.4692,-6.4807,-6.481,-6.4812,-6.4814,0,-6.4273,-6.4266,-6.4324,-6.4382,-6.4429,-6.4473,-6.4511,-6.4547,-6.4527,-6.4576,-6.4646,-6.4684,-6.476,-6.4823,-6.4875,-6.4889,-6.4849,-6.4844,-6.4867,-6.4877,-6.488,-6.488,-6.4575,-6.4837,-6.4834,-6.4833,-6.4832,-6.4831,-6.4443,-6.4506,-6.4539,-6.4605,-6.4633,-6.467,-6.4729,-6.4735,-6.4793,-6.4854,-6.4836,-6.4915,-6.4945,-6.5011,-6.5031,-6.5091,-6.5053,-6.5087,-6.5095,-6.5104,-6.5115,-6.4871,-6.51,-6.5099,-6.5099,-6.5098,-6.5098,0,-6.4674,-6.4693,-6.4755,-6.4812,-6.4864,-6.4824,-6.4864,-6.491,-6.4981,-6.5013,-6.5063,-6.5143,-6.5205,-6.5212,-6.527,-6.5317,-6.53,-6.5333,-6.5329,-6.5333,-6.5145,-6.512,-6.5346,-6.5345,-6.5345,-6.5345,-6.5345,-6.5345,-6.4801,-6.4906,-6.4903,-6.5021,-6.5038,-6.5117,-6.5144,-6.5178,-6.5203,-6.5295,-6.5347,-6.5353,-6.5374,-6.5434,-6.5488,-6.5488,-6.5511,-6.5552,-6.5545,-6.537,-6.5346,-6.5322,-6.5298,-6.5557,-6.5557,-6.5727,-6.5729,-6.573]}]]